Retour au catalogue

KUIPER-00071

ActifCommunicationsLEO
NORAD 64818·PAYLOAD·🇺🇸 United States

Lancé Jul 16, 2025 depuis Cape Canaveral Space Force Station

Loading…

Prochains Passages (prochaines 24 heures)

TLE

FraisSource: CelesTrak SupGP

Époque: Sep 14, 2026, 21:59 UTC

1 64818C 25151C   26257.91609954 -.00000653  00000+0 -85443-4 0  2576
2 64818  51.9000 186.3409 0000759  94.9251 125.9506 14.79929544    19

Suivez KUIPER-00071 en temps réel avec AllMySat

Download on the App Store